MIDAS 5 DEB, 18603

Orbit data source: Space-Track

MIDAS 5 DEB, 18603 is space debris in LEO originally from a launch on Mon, 09 Apr 1962 UTC via an ATLAS AGENA B launch vehicle from the Air Force Western Test Range (AFWTR). Debris objects in space refer to the collection of defunct objects orbiting the Earth. Examples of debris include non-operational satellites, rocket bodies, and fragments generated from explosions, collisions, or faulty payload assembly.

Loading next visibility...
Identifier
18603, 1962-010G
Orbit
LEO
Country
Flag of USUS
Related business
Manufacturer
MIT-LL
Mission
Spacecraft
Bus & Motor
WESTFORD DRAG, Unknown motor
Mass
~1 kg wet, ~1 kg dry
Launch date (UTC)
1962-04-09 (63 years ago)
Launch vehicle
ATLAS AGENA B
Launch site
Air Force Western Test Range (AFWTR)
Object type
Payload
Rocket body
Debris
Shape & HBR
Cyl, 0.3 m
Radar Cross Section
0.094 m², Medium (>0.1 m² and < 1m²)

Expand to show TLE details & history
Last TLE update: 3 days ago

TLE from 3 days ago
0 MIDAS 5 DEB
1 18603U 62010G   25255.74549735 -.00000020  00000-0 -51394-2 0  9998
2 18603  86.6916   6.1669 0285706  42.7353 113.5839  9.41010247352442
Epoch: 2025-09-12T17:53Z
TLE epoch observation values (Epoch: 2025-09-12T17:53:30.971Z)
Latitude
20.69046°
Longitude
-75.44683°
Altitude
3,215.669 km
Speed
6.409 km/s
True Right ascension
12h 19m 41s
True Declination
20° 36' 22"
Sunlit
Object was in daylight at epoch
Visualization orbit readout
Latitude
Unknown
Longitude
Unknown
Altitude
Unknown
Speed
Unknown
Apparent Right ascension
Unknown
Apparent Declination
Unknown
Sunlit
N/A
Visualization observer readout
Local Sidereal Time
07:37:24
Azimuth
Unknown
Elevation
Unknown
Doppler factor
Unknown
Orbital elements
Apogee altitude
3,367.295 km
Perigee altitude
2,825.898 km
Semi-major axis
9,474.733 km
Eccentricity
0.02857
Inclination
86.6916°
RAAN
6.1669°
Arg. of periapsis
42.7353°
True anomaly
116.54079°
Mean anomaly
113.5839°
Eccentric anomaly
115.0667°
Mean motion
2.35338 °/min
Orbital period
152.97 mins
BSTAR
-0.0051394
Loading maneuver chart data...
Computing Atmospheric mass density...
Loading historical data...
Loading historical data...
Loading historical data...
Loading historical data...
Loading historical data...
Loading historical data...
Loading historical data...

Documentation

Showing up to 5 results
|